Index of /20260504/WXO-DD/model_rdps/10km/12/021
Name Last modified Size Description
Parent Directory -
20260504T12Z_MSC_RDPS_AbsoluteVorticity_IsbL-0250_RLatLon0.09_PT021H.grib2 2026-05-04 14:52 608K
20260504T12Z_MSC_RDPS_AbsoluteVorticity_IsbL-0500_RLatLon0.09_PT021H.grib2 2026-05-04 14:52 679K
20260504T12Z_MSC_RDPS_AbsoluteVorticity_IsbL-0700_RLatLon0.09_PT021H.grib2 2026-05-04 14:52 592K
20260504T12Z_MSC_RDPS_AbsoluteVorticity_IsbL-0850_RLatLon0.09_PT021H.grib2 2026-05-04 14:52 761K
20260504T12Z_MSC_RDPS_AirTemp_AGL-120m_RLatLon0.09_PT021H.grib2 2026-05-04 14:52 376K
20260504T12Z_MSC_RDPS_AirTemp_AGL-2m_RLatLon0.09_PT021H.grib2 2026-05-04 14:52 634K
20260504T12Z_MSC_RDPS_AirTemp_AGL-40m_RLatLon0.09_PT021H.grib2 2026-05-04 14:52 390K
20260504T12Z_MSC_RDPS_AirTemp_AGL-80m_RLatLon0.09_PT021H.grib2 2026-05-04 14:52 382K
20260504T12Z_MSC_RDPS_AirTemp_IsbL-0001_RLatLon0.09_PT021H.grib2 2026-05-04 14:52 258K
20260504T12Z_MSC_RDPS_AirTemp_IsbL-0005_RLatLon0.09_PT021H.grib2 2026-05-04 14:52 289K
20260504T12Z_MSC_RDPS_AirTemp_IsbL-0010_RLatLon0.09_PT021H.grib2 2026-05-04 14:52 299K
20260504T12Z_MSC_RDPS_AirTemp_IsbL-0020_RLatLon0.09_PT021H.grib2 2026-05-04 14:52 316K
20260504T12Z_MSC_RDPS_AirTemp_IsbL-0030_RLatLon0.09_PT021H.grib2 2026-05-04 14:52 336K
20260504T12Z_MSC_RDPS_AirTemp_IsbL-0050_RLatLon0.09_PT021H.grib2 2026-05-04 14:52 318K
20260504T12Z_MSC_RDPS_AirTemp_IsbL-0100_RLatLon0.09_PT021H.grib2 2026-05-04 14:52 430K
20260504T12Z_MSC_RDPS_AirTemp_IsbL-0150_RLatLon0.09_PT021H.grib2 2026-05-04 14:52 419K
20260504T12Z_MSC_RDPS_AirTemp_IsbL-0175_RLatLon0.09_PT021H.grib2 2026-05-04 14:52 409K
20260504T12Z_MSC_RDPS_AirTemp_IsbL-0200_RLatLon0.09_PT021H.grib2 2026-05-04 14:52 412K
20260504T12Z_MSC_RDPS_AirTemp_IsbL-0225_RLatLon0.09_PT021H.grib2 2026-05-04 14:52 414K
20260504T12Z_MSC_RDPS_AirTemp_IsbL-0250_RLatLon0.09_PT021H.grib2 2026-05-04 14:52 420K
20260504T12Z_MSC_RDPS_AirTemp_IsbL-0275_RLatLon0.09_PT021H.grib2 2026-05-04 14:52 404K
20260504T12Z_MSC_RDPS_AirTemp_IsbL-0300_RLatLon0.09_PT021H.grib2 2026-05-04 14:52 411K
20260504T12Z_MSC_RDPS_AirTemp_IsbL-0350_RLatLon0.09_PT021H.grib2 2026-05-04 14:52 427K
20260504T12Z_MSC_RDPS_AirTemp_IsbL-0400_RLatLon0.09_PT021H.grib2 2026-05-04 14:52 431K
20260504T12Z_MSC_RDPS_AirTemp_IsbL-0450_RLatLon0.09_PT021H.grib2 2026-05-04 14:52 439K
20260504T12Z_MSC_RDPS_AirTemp_IsbL-0500_RLatLon0.09_PT021H.grib2 2026-05-04 14:52 450K
20260504T12Z_MSC_RDPS_AirTemp_IsbL-0550_RLatLon0.09_PT021H.grib2 2026-05-04 14:52 466K
20260504T12Z_MSC_RDPS_AirTemp_IsbL-0600_RLatLon0.09_PT021H.grib2 2026-05-04 14:52 446K
20260504T12Z_MSC_RDPS_AirTemp_IsbL-0650_RLatLon0.09_PT021H.grib2 2026-05-04 14:52 462K
20260504T12Z_MSC_RDPS_AirTemp_IsbL-0700_RLatLon0.09_PT021H.grib2 2026-05-04 14:52 379K
20260504T12Z_MSC_RDPS_AirTemp_IsbL-0750_RLatLon0.09_PT021H.grib2 2026-05-04 14:52 412K
20260504T12Z_MSC_RDPS_AirTemp_IsbL-0800_RLatLon0.09_PT021H.grib2 2026-05-04 14:52 462K
20260504T12Z_MSC_RDPS_AirTemp_IsbL-0850_RLatLon0.09_PT021H.grib2 2026-05-04 14:52 517K
20260504T12Z_MSC_RDPS_AirTemp_IsbL-0875_RLatLon0.09_PT021H.grib2 2026-05-04 14:52 665K
20260504T12Z_MSC_RDPS_AirTemp_IsbL-0900_RLatLon0.09_PT021H.grib2 2026-05-04 14:52 538K
20260504T12Z_MSC_RDPS_AirTemp_IsbL-0925_RLatLon0.09_PT021H.grib2 2026-05-04 14:52 663K
20260504T12Z_MSC_RDPS_AirTemp_IsbL-0950_RLatLon0.09_PT021H.grib2 2026-05-04 14:52 525K
20260504T12Z_MSC_RDPS_AirTemp_IsbL-0970_RLatLon0.09_PT021H.grib2 2026-05-04 14:52 516K
20260504T12Z_MSC_RDPS_AirTemp_IsbL-0985_RLatLon0.09_PT021H.grib2 2026-05-04 14:52 503K
20260504T12Z_MSC_RDPS_AirTemp_IsbL-1000_RLatLon0.09_PT021H.grib2 2026-05-04 14:52 491K
20260504T12Z_MSC_RDPS_AirTemp_IsbL-1015_RLatLon0.09_PT021H.grib2 2026-05-04 14:52 498K
20260504T12Z_MSC_RDPS_Albedo_Sfc_RLatLon0.09_PT021H.grib2 2026-05-04 14:52 159K
20260504T12Z_MSC_RDPS_CAPE_Sfc_RLatLon0.09_PT021H.grib2 2026-05-04 14:52 1.6M
20260504T12Z_MSC_RDPS_CIN_Sfc_RLatLon0.09_PT021H.grib2 2026-05-04 14:52 1.1M
20260504T12Z_MSC_RDPS_CloudWater_EAtm_RLatLon0.09_PT021H.grib2 2026-05-04 14:52 221K
20260504T12Z_MSC_RDPS_ConvectivePrecip-Accum_Sfc_RLatLon0.09_PT021H.grib2 2026-05-04 14:52 816K
20260504T12Z_MSC_RDPS_DewPointDepression_AGL-2m_RLatLon0.09_PT021H.grib2 2026-05-04 14:52 401K
20260504T12Z_MSC_RDPS_DewPointDepression_IsbL-0001_RLatLon0.09_PT021H.grib2 2026-05-04 14:52 193
20260504T12Z_MSC_RDPS_DewPointDepression_IsbL-0005_RLatLon0.09_PT021H.grib2 2026-05-04 14:52 193
20260504T12Z_MSC_RDPS_DewPointDepression_IsbL-0010_RLatLon0.09_PT021H.grib2 2026-05-04 14:52 193
20260504T12Z_MSC_RDPS_DewPointDepression_IsbL-0020_RLatLon0.09_PT021H.grib2 2026-05-04 14:52 193
20260504T12Z_MSC_RDPS_DewPointDepression_IsbL-0030_RLatLon0.09_PT021H.grib2 2026-05-04 14:52 193
20260504T12Z_MSC_RDPS_DewPointDepression_IsbL-0050_RLatLon0.09_PT021H.grib2 2026-05-04 14:52 80K
20260504T12Z_MSC_RDPS_DewPointDepression_IsbL-0100_RLatLon0.09_PT021H.grib2 2026-05-04 14:52 117K
20260504T12Z_MSC_RDPS_DewPointDepression_IsbL-0150_RLatLon0.09_PT021H.grib2 2026-05-04 14:52 140K
20260504T12Z_MSC_RDPS_DewPointDepression_IsbL-0175_RLatLon0.09_PT021H.grib2 2026-05-04 14:52 176K
20260504T12Z_MSC_RDPS_DewPointDepression_IsbL-0200_RLatLon0.09_PT021H.grib2 2026-05-04 14:52 216K
20260504T12Z_MSC_RDPS_DewPointDepression_IsbL-0225_RLatLon0.09_PT021H.grib2 2026-05-04 14:52 253K
20260504T12Z_MSC_RDPS_DewPointDepression_IsbL-0250_RLatLon0.09_PT021H.grib2 2026-05-04 14:52 292K
20260504T12Z_MSC_RDPS_DewPointDepression_IsbL-0275_RLatLon0.09_PT021H.grib2 2026-05-04 14:52 303K
20260504T12Z_MSC_RDPS_DewPointDepression_IsbL-0300_RLatLon0.09_PT021H.grib2 2026-05-04 14:52 321K
20260504T12Z_MSC_RDPS_DewPointDepression_IsbL-0350_RLatLon0.09_PT021H.grib2 2026-05-04 14:52 329K
20260504T12Z_MSC_RDPS_DewPointDepression_IsbL-0400_RLatLon0.09_PT021H.grib2 2026-05-04 14:52 338K
20260504T12Z_MSC_RDPS_DewPointDepression_IsbL-0450_RLatLon0.09_PT021H.grib2 2026-05-04 14:52 343K
20260504T12Z_MSC_RDPS_DewPointDepression_IsbL-0500_RLatLon0.09_PT021H.grib2 2026-05-04 14:52 349K
20260504T12Z_MSC_RDPS_DewPointDepression_IsbL-0550_RLatLon0.09_PT021H.grib2 2026-05-04 14:52 358K
20260504T12Z_MSC_RDPS_DewPointDepression_IsbL-0600_RLatLon0.09_PT021H.grib2 2026-05-04 14:52 365K
20260504T12Z_MSC_RDPS_DewPointDepression_IsbL-0650_RLatLon0.09_PT021H.grib2 2026-05-04 14:52 372K
20260504T12Z_MSC_RDPS_DewPointDepression_IsbL-0700_RLatLon0.09_PT021H.grib2 2026-05-04 14:52 384K
20260504T12Z_MSC_RDPS_DewPointDepression_IsbL-0750_RLatLon0.09_PT021H.grib2 2026-05-04 14:52 403K
20260504T12Z_MSC_RDPS_DewPointDepression_IsbL-0800_RLatLon0.09_PT021H.grib2 2026-05-04 14:52 439K
20260504T12Z_MSC_RDPS_DewPointDepression_IsbL-0850_RLatLon0.09_PT021H.grib2 2026-05-04 14:52 474K
20260504T12Z_MSC_RDPS_DewPointDepression_IsbL-0875_RLatLon0.09_PT021H.grib2 2026-05-04 14:52 473K
20260504T12Z_MSC_RDPS_DewPointDepression_IsbL-0900_RLatLon0.09_PT021H.grib2 2026-05-04 14:52 460K
20260504T12Z_MSC_RDPS_DewPointDepression_IsbL-0925_RLatLon0.09_PT021H.grib2 2026-05-04 14:52 447K
20260504T12Z_MSC_RDPS_DewPointDepression_IsbL-0950_RLatLon0.09_PT021H.grib2 2026-05-04 14:52 440K
20260504T12Z_MSC_RDPS_DewPointDepression_IsbL-0970_RLatLon0.09_PT021H.grib2 2026-05-04 14:52 435K
20260504T12Z_MSC_RDPS_DewPointDepression_IsbL-0985_RLatLon0.09_PT021H.grib2 2026-05-04 14:52 431K
20260504T12Z_MSC_RDPS_DewPointDepression_IsbL-1000_RLatLon0.09_PT021H.grib2 2026-05-04 14:52 426K
20260504T12Z_MSC_RDPS_DewPointDepression_IsbL-1015_RLatLon0.09_PT021H.grib2 2026-05-04 14:52 419K
20260504T12Z_MSC_RDPS_DewPoint_AGL-2m_RLatLon0.09_PT021H.grib2 2026-05-04 14:52 306K
20260504T12Z_MSC_RDPS_DownwardLongwaveRadiationFlux-Accum_Sfc_RLatLon0.09_PT021H.grib2 2026-05-04 14:52 422K
20260504T12Z_MSC_RDPS_DownwardShortwaveRadiationFlux-Accum_NTAtm_RLatLon0.09_PT021H.grib2 2026-05-04 14:52 129K
20260504T12Z_MSC_RDPS_DownwardShortwaveRadiationFlux-Accum_Sfc_RLatLon0.09_PT021H.grib2 2026-05-04 14:52 633K
20260504T12Z_MSC_RDPS_FreezingRain-Accum1h_Sfc_RLatLon0.09_PT021H.grib2 2026-05-04 14:52 37K
20260504T12Z_MSC_RDPS_FreezingRain-Accum3h_Sfc_RLatLon0.09_PT021H.grib2 2026-05-04 14:52 40K
20260504T12Z_MSC_RDPS_FreezingRain-Accum_Sfc_RLatLon0.09_PT021H.grib2 2026-05-04 14:52 83K
20260504T12Z_MSC_RDPS_GeopotentialHeight_IsbL-0001_RLatLon0.09_PT021H.grib2 2026-05-04 14:52 241K
20260504T12Z_MSC_RDPS_GeopotentialHeight_IsbL-0005_RLatLon0.09_PT021H.grib2 2026-05-04 14:52 341K
20260504T12Z_MSC_RDPS_GeopotentialHeight_IsbL-0010_RLatLon0.09_PT021H.grib2 2026-05-04 14:52 310K
20260504T12Z_MSC_RDPS_GeopotentialHeight_IsbL-0020_RLatLon0.09_PT021H.grib2 2026-05-04 14:52 407K
20260504T12Z_MSC_RDPS_GeopotentialHeight_IsbL-0030_RLatLon0.09_PT021H.grib2 2026-05-04 14:52 385K
20260504T12Z_MSC_RDPS_GeopotentialHeight_IsbL-0050_RLatLon0.09_PT021H.grib2 2026-05-04 14:52 314K
20260504T12Z_MSC_RDPS_GeopotentialHeight_IsbL-0100_RLatLon0.09_PT021H.grib2 2026-05-04 14:52 290K
20260504T12Z_MSC_RDPS_GeopotentialHeight_IsbL-0150_RLatLon0.09_PT021H.grib2 2026-05-04 14:52 231K
20260504T12Z_MSC_RDPS_GeopotentialHeight_IsbL-0175_RLatLon0.09_PT021H.grib2 2026-05-04 14:52 234K
20260504T12Z_MSC_RDPS_GeopotentialHeight_IsbL-0200_RLatLon0.09_PT021H.grib2 2026-05-04 14:52 237K
20260504T12Z_MSC_RDPS_GeopotentialHeight_IsbL-0225_RLatLon0.09_PT021H.grib2 2026-05-04 14:52 238K
20260504T12Z_MSC_RDPS_GeopotentialHeight_IsbL-0250_RLatLon0.09_PT021H.grib2 2026-05-04 14:52 239K
20260504T12Z_MSC_RDPS_GeopotentialHeight_IsbL-0275_RLatLon0.09_PT021H.grib2 2026-05-04 14:52 238K
20260504T12Z_MSC_RDPS_GeopotentialHeight_IsbL-0300_RLatLon0.09_PT021H.grib2 2026-05-04 14:52 238K
20260504T12Z_MSC_RDPS_GeopotentialHeight_IsbL-0350_RLatLon0.09_PT021H.grib2 2026-05-04 14:52 233K
20260504T12Z_MSC_RDPS_GeopotentialHeight_IsbL-0400_RLatLon0.09_PT021H.grib2 2026-05-04 14:52 305K
20260504T12Z_MSC_RDPS_GeopotentialHeight_IsbL-0450_RLatLon0.09_PT021H.grib2 2026-05-04 14:52 300K
20260504T12Z_MSC_RDPS_GeopotentialHeight_IsbL-0500_RLatLon0.09_PT021H.grib2 2026-05-04 14:52 296K
20260504T12Z_MSC_RDPS_GeopotentialHeight_IsbL-0550_RLatLon0.09_PT021H.grib2 2026-05-04 14:52 293K
20260504T12Z_MSC_RDPS_GeopotentialHeight_IsbL-0600_RLatLon0.09_PT021H.grib2 2026-05-04 14:52 262K
20260504T12Z_MSC_RDPS_GeopotentialHeight_IsbL-0650_RLatLon0.09_PT021H.grib2 2026-05-04 14:52 259K
20260504T12Z_MSC_RDPS_GeopotentialHeight_IsbL-0700_RLatLon0.09_PT021H.grib2 2026-05-04 14:52 258K
20260504T12Z_MSC_RDPS_GeopotentialHeight_IsbL-0750_RLatLon0.09_PT021H.grib2 2026-05-04 14:52 344K
20260504T12Z_MSC_RDPS_GeopotentialHeight_IsbL-0800_RLatLon0.09_PT021H.grib2 2026-05-04 14:52 354K
20260504T12Z_MSC_RDPS_GeopotentialHeight_IsbL-0850_RLatLon0.09_PT021H.grib2 2026-05-04 14:52 366K
20260504T12Z_MSC_RDPS_GeopotentialHeight_IsbL-0875_RLatLon0.09_PT021H.grib2 2026-05-04 14:52 279K
20260504T12Z_MSC_RDPS_GeopotentialHeight_IsbL-0900_RLatLon0.09_PT021H.grib2 2026-05-04 14:52 280K
20260504T12Z_MSC_RDPS_GeopotentialHeight_IsbL-0925_RLatLon0.09_PT021H.grib2 2026-05-04 14:52 283K
20260504T12Z_MSC_RDPS_GeopotentialHeight_IsbL-0950_RLatLon0.09_PT021H.grib2 2026-05-04 14:52 285K
20260504T12Z_MSC_RDPS_GeopotentialHeight_IsbL-0970_RLatLon0.09_PT021H.grib2 2026-05-04 14:52 289K
20260504T12Z_MSC_RDPS_GeopotentialHeight_IsbL-0985_RLatLon0.09_PT021H.grib2 2026-05-04 14:52 294K
20260504T12Z_MSC_RDPS_GeopotentialHeight_IsbL-1000_RLatLon0.09_PT021H.grib2 2026-05-04 14:52 303K
20260504T12Z_MSC_RDPS_GeopotentialHeight_IsbL-1015_RLatLon0.09_PT021H.grib2 2026-05-04 14:52 315K
20260504T12Z_MSC_RDPS_Humidex_Sfc_RLatLon0.09_PT021H.grib2 2026-05-04 14:52 2.4M
20260504T12Z_MSC_RDPS_IcePellets-Accum1h_Sfc_RLatLon0.09_PT021H.grib2 2026-05-04 14:52 8.4K
20260504T12Z_MSC_RDPS_IcePellets-Accum3h_Sfc_RLatLon0.09_PT021H.grib2 2026-05-04 14:52 9.0K
20260504T12Z_MSC_RDPS_IcePellets-Accum_Sfc_RLatLon0.09_PT021H.grib2 2026-05-04 14:52 20K
20260504T12Z_MSC_RDPS_KIndex_Sfc_RLatLon0.09_PT021H.grib2 2026-05-04 14:52 2.5M
20260504T12Z_MSC_RDPS_LatentHeatNetFlux_Sfc_RLatLon0.09_PT021H.grib2 2026-05-04 14:52 423K
20260504T12Z_MSC_RDPS_LiftedIndex-MU-VT_IsbL-0500_RLatLon0.09_PT021H.grib2 2026-05-04 14:52 2.4M
20260504T12Z_MSC_RDPS_NetLongwaveRadiationFlux-Accum_Sfc_RLatLon0.09_PT021H.grib2 2026-05-04 14:52 565K
20260504T12Z_MSC_RDPS_NetShortwaveRadiationFlux-Accum_Sfc_RLatLon0.09_PT021H.grib2 2026-05-04 14:52 627K
20260504T12Z_MSC_RDPS_PlanetaryBoundaryLayerHeight_Sfc_RLatLon0.09_PT021H.grib2 2026-05-04 14:52 1.2M
20260504T12Z_MSC_RDPS_Precip-Accum1h_Sfc_RLatLon0.09_PT021H.grib2 2026-05-04 14:52 1.3M
20260504T12Z_MSC_RDPS_Precip-Accum3h_Sfc_RLatLon0.09_PT021H.grib2 2026-05-04 14:52 1.5M
20260504T12Z_MSC_RDPS_Precip-Accum_Sfc_RLatLon0.09_PT021H.grib2 2026-05-04 14:52 1.8M
20260504T12Z_MSC_RDPS_PrecipRate_Sfc_RLatLon0.09_PT021H.grib2 2026-05-04 14:52 185K
20260504T12Z_MSC_RDPS_PrecipType-Instant_Sfc_RLatLon0.09_PT021H.grib2 2026-05-04 14:52 604K
20260504T12Z_MSC_RDPS_Pressure-Trend3h_Sfc_RLatLon0.09_PT021H.grib2 2026-05-04 14:52 1.2M
20260504T12Z_MSC_RDPS_Pressure_MSL_RLatLon0.09_PT021H.grib2 2026-05-04 14:52 327K
20260504T12Z_MSC_RDPS_Pressure_PVU-1.5_RLatLon0.09_PT021H.grib2 2026-05-04 14:52 2.5M
20260504T12Z_MSC_RDPS_Pressure_PVU-1_RLatLon0.09_PT021H.grib2 2026-05-04 14:52 2.4M
20260504T12Z_MSC_RDPS_Pressure_PVU-2_RLatLon0.09_PT021H.grib2 2026-05-04 14:52 2.4M
20260504T12Z_MSC_RDPS_Pressure_Sfc_RLatLon0.09_PT021H.grib2 2026-05-04 14:52 499K
20260504T12Z_MSC_RDPS_RadiativeTemp_Sfc_RLatLon0.09_PT021H.grib2 2026-05-04 14:52 300K
20260504T12Z_MSC_RDPS_Rain-Accum1h_Sfc_RLatLon0.09_PT021H.grib2 2026-05-04 14:52 647K
20260504T12Z_MSC_RDPS_Rain-Accum3h_Sfc_RLatLon0.09_PT021H.grib2 2026-05-04 14:52 835K
20260504T12Z_MSC_RDPS_Rain-Accum_Sfc_RLatLon0.09_PT021H.grib2 2026-05-04 14:52 1.4M
20260504T12Z_MSC_RDPS_RelativeHumidity_AGL-2m_RLatLon0.09_PT021H.grib2 2026-05-04 14:52 1.0M
20260504T12Z_MSC_RDPS_RelativeHumidity_IsbL-0010_RLatLon0.09_PT021H.grib2 2026-05-04 14:52 628K
20260504T12Z_MSC_RDPS_RelativeHumidity_IsbL-0020_RLatLon0.09_PT021H.grib2 2026-05-04 14:52 755K
20260504T12Z_MSC_RDPS_RelativeHumidity_IsbL-0030_RLatLon0.09_PT021H.grib2 2026-05-04 14:52 605K
20260504T12Z_MSC_RDPS_RelativeHumidity_IsbL-0050_RLatLon0.09_PT021H.grib2 2026-05-04 14:52 362K
20260504T12Z_MSC_RDPS_RelativeHumidity_IsbL-0100_RLatLon0.09_PT021H.grib2 2026-05-04 14:52 288K
20260504T12Z_MSC_RDPS_RelativeHumidity_IsbL-0150_RLatLon0.09_PT021H.grib2 2026-05-04 14:52 414K
20260504T12Z_MSC_RDPS_RelativeHumidity_IsbL-0175_RLatLon0.09_PT021H.grib2 2026-05-04 14:52 481K
20260504T12Z_MSC_RDPS_RelativeHumidity_IsbL-0200_RLatLon0.09_PT021H.grib2 2026-05-04 14:52 559K
20260504T12Z_MSC_RDPS_RelativeHumidity_IsbL-0225_RLatLon0.09_PT021H.grib2 2026-05-04 14:52 621K
20260504T12Z_MSC_RDPS_RelativeHumidity_IsbL-0250_RLatLon0.09_PT021H.grib2 2026-05-04 14:52 683K
20260504T12Z_MSC_RDPS_RelativeHumidity_IsbL-0275_RLatLon0.09_PT021H.grib2 2026-05-04 14:52 705K
20260504T12Z_MSC_RDPS_RelativeHumidity_IsbL-0300_RLatLon0.09_PT021H.grib2 2026-05-04 14:52 745K
20260504T12Z_MSC_RDPS_RelativeHumidity_IsbL-0350_RLatLon0.09_PT021H.grib2 2026-05-04 14:52 772K
20260504T12Z_MSC_RDPS_RelativeHumidity_IsbL-0400_RLatLon0.09_PT021H.grib2 2026-05-04 14:52 783K
20260504T12Z_MSC_RDPS_RelativeHumidity_IsbL-0450_RLatLon0.09_PT021H.grib2 2026-05-04 14:52 788K
20260504T12Z_MSC_RDPS_RelativeHumidity_IsbL-0500_RLatLon0.09_PT021H.grib2 2026-05-04 14:52 792K
20260504T12Z_MSC_RDPS_RelativeHumidity_IsbL-0550_RLatLon0.09_PT021H.grib2 2026-05-04 14:52 807K
20260504T12Z_MSC_RDPS_RelativeHumidity_IsbL-0600_RLatLon0.09_PT021H.grib2 2026-05-04 14:52 825K
20260504T12Z_MSC_RDPS_RelativeHumidity_IsbL-0650_RLatLon0.09_PT021H.grib2 2026-05-04 14:52 851K
20260504T12Z_MSC_RDPS_RelativeHumidity_IsbL-0700_RLatLon0.09_PT021H.grib2 2026-05-04 14:52 877K
20260504T12Z_MSC_RDPS_RelativeHumidity_IsbL-0750_RLatLon0.09_PT021H.grib2 2026-05-04 14:52 917K
20260504T12Z_MSC_RDPS_RelativeHumidity_IsbL-0800_RLatLon0.09_PT021H.grib2 2026-05-04 14:52 1.0M
20260504T12Z_MSC_RDPS_RelativeHumidity_IsbL-0850_RLatLon0.09_PT021H.grib2 2026-05-04 14:52 1.0M
20260504T12Z_MSC_RDPS_RelativeHumidity_IsbL-0875_RLatLon0.09_PT021H.grib2 2026-05-04 14:52 1.1M
20260504T12Z_MSC_RDPS_RelativeHumidity_IsbL-0900_RLatLon0.09_PT021H.grib2 2026-05-04 14:52 1.1M
20260504T12Z_MSC_RDPS_RelativeHumidity_IsbL-0925_RLatLon0.09_PT021H.grib2 2026-05-04 14:52 1.1M
20260504T12Z_MSC_RDPS_RelativeHumidity_IsbL-0950_RLatLon0.09_PT021H.grib2 2026-05-04 14:52 1.1M
20260504T12Z_MSC_RDPS_RelativeHumidity_IsbL-0970_RLatLon0.09_PT021H.grib2 2026-05-04 14:52 1.1M
20260504T12Z_MSC_RDPS_RelativeHumidity_IsbL-0985_RLatLon0.09_PT021H.grib2 2026-05-04 14:52 1.0M
20260504T12Z_MSC_RDPS_RelativeHumidity_IsbL-1000_RLatLon0.09_PT021H.grib2 2026-05-04 14:52 1.0M
20260504T12Z_MSC_RDPS_RelativeHumidity_IsbL-1015_RLatLon0.09_PT021H.grib2 2026-05-04 14:52 1.0M
20260504T12Z_MSC_RDPS_Runoff-Accum_Sfc_RLatLon0.09_PT021H.grib2 2026-05-04 14:52 51K
20260504T12Z_MSC_RDPS_SWEATIndex_Sfc_RLatLon0.09_PT021H.grib2 2026-05-04 14:52 2.4M
20260504T12Z_MSC_RDPS_SeeingIndex_EAtm_RLatLon0.09_PT021H.grib2 2026-05-04 14:52 1.0M
20260504T12Z_MSC_RDPS_SensibleHeatNetFlux_Sfc_RLatLon0.09_PT021H.grib2 2026-05-04 14:52 302K
20260504T12Z_MSC_RDPS_ShowalterIndex_IsbL-0500_RLatLon0.09_PT021H.grib2 2026-05-04 14:52 2.6M
20260504T12Z_MSC_RDPS_SkyTransparencyIndex_EAtm_RLatLon0.09_PT021H.grib2 2026-05-04 14:52 700K
20260504T12Z_MSC_RDPS_Snow-Accum1h_Sfc_RLatLon0.09_PT021H.grib2 2026-05-04 14:52 383K
20260504T12Z_MSC_RDPS_Snow-Accum3h_Sfc_RLatLon0.09_PT021H.grib2 2026-05-04 14:52 383K
20260504T12Z_MSC_RDPS_Snow-Accum_Sfc_RLatLon0.09_PT021H.grib2 2026-05-04 14:52 678K
20260504T12Z_MSC_RDPS_SnowDensity_Sfc_RLatLon0.09_PT021H.grib2 2026-05-04 14:52 170K
20260504T12Z_MSC_RDPS_SnowDepth_Sfc_RLatLon0.09_PT021H.grib2 2026-05-04 14:52 649K
20260504T12Z_MSC_RDPS_SoilTemp_DBS-0to10cm_RLatLon0.09_PT021H.grib2 2026-05-04 14:52 222K
20260504T12Z_MSC_RDPS_SoilTemp_Sfc_RLatLon0.09_PT021H.grib2 2026-05-04 14:52 264K
20260504T12Z_MSC_RDPS_SoilVolumetricIceContent_Sfc_RLatLon0.09_PT021H.grib2 2026-05-04 14:52 153K
20260504T12Z_MSC_RDPS_SoilVolumetricWaterContent_DBS-0to10cm_RLatLon0.09_PT021H.grib2 2026-05-04 14:52 276K
20260504T12Z_MSC_RDPS_SoilVolumetricWaterContent_DBS-0to1cm_RLatLon0.09_PT021H.grib2 2026-05-04 14:52 339K
20260504T12Z_MSC_RDPS_SpecificHumidity_AGL-120m_RLatLon0.09_PT021H.grib2 2026-05-04 14:52 489K
20260504T12Z_MSC_RDPS_SpecificHumidity_AGL-2m_RLatLon0.09_PT021H.grib2 2026-05-04 14:52 659K
20260504T12Z_MSC_RDPS_SpecificHumidity_AGL-40m_RLatLon0.09_PT021H.grib2 2026-05-04 14:52 496K
20260504T12Z_MSC_RDPS_SpecificHumidity_AGL-80m_RLatLon0.09_PT021H.grib2 2026-05-04 14:52 491K
20260504T12Z_MSC_RDPS_SpecificHumidity_IsbL-0001_RLatLon0.09_PT021H.grib2 2026-05-04 14:52 299K
20260504T12Z_MSC_RDPS_SpecificHumidity_IsbL-0005_RLatLon0.09_PT021H.grib2 2026-05-04 14:52 372K
20260504T12Z_MSC_RDPS_SpecificHumidity_IsbL-0010_RLatLon0.09_PT021H.grib2 2026-05-04 14:52 402K
20260504T12Z_MSC_RDPS_SpecificHumidity_IsbL-0020_RLatLon0.09_PT021H.grib2 2026-05-04 14:52 387K
20260504T12Z_MSC_RDPS_SpecificHumidity_IsbL-0030_RLatLon0.09_PT021H.grib2 2026-05-04 14:52 379K
20260504T12Z_MSC_RDPS_SpecificHumidity_IsbL-0050_RLatLon0.09_PT021H.grib2 2026-05-04 14:52 491K
20260504T12Z_MSC_RDPS_SpecificHumidity_IsbL-0100_RLatLon0.09_PT021H.grib2 2026-05-04 14:52 539K
20260504T12Z_MSC_RDPS_SpecificHumidity_IsbL-0150_RLatLon0.09_PT021H.grib2 2026-05-04 14:52 453K
20260504T12Z_MSC_RDPS_SpecificHumidity_IsbL-0175_RLatLon0.09_PT021H.grib2 2026-05-04 14:52 444K
20260504T12Z_MSC_RDPS_SpecificHumidity_IsbL-0200_RLatLon0.09_PT021H.grib2 2026-05-04 14:52 462K
20260504T12Z_MSC_RDPS_SpecificHumidity_IsbL-0225_RLatLon0.09_PT021H.grib2 2026-05-04 14:52 461K
20260504T12Z_MSC_RDPS_SpecificHumidity_IsbL-0250_RLatLon0.09_PT021H.grib2 2026-05-04 14:52 565K
20260504T12Z_MSC_RDPS_SpecificHumidity_IsbL-0275_RLatLon0.09_PT021H.grib2 2026-05-04 14:52 480K
20260504T12Z_MSC_RDPS_SpecificHumidity_IsbL-0300_RLatLon0.09_PT021H.grib2 2026-05-04 14:52 575K
20260504T12Z_MSC_RDPS_SpecificHumidity_IsbL-0350_RLatLon0.09_PT021H.grib2 2026-05-04 14:52 571K
20260504T12Z_MSC_RDPS_SpecificHumidity_IsbL-0400_RLatLon0.09_PT021H.grib2 2026-05-04 14:52 524K
20260504T12Z_MSC_RDPS_SpecificHumidity_IsbL-0450_RLatLon0.09_PT021H.grib2 2026-05-04 14:52 573K
20260504T12Z_MSC_RDPS_SpecificHumidity_IsbL-0500_RLatLon0.09_PT021H.grib2 2026-05-04 14:52 505K
20260504T12Z_MSC_RDPS_SpecificHumidity_IsbL-0550_RLatLon0.09_PT021H.grib2 2026-05-04 14:52 558K
20260504T12Z_MSC_RDPS_SpecificHumidity_IsbL-0600_RLatLon0.09_PT021H.grib2 2026-05-04 14:52 623K
20260504T12Z_MSC_RDPS_SpecificHumidity_IsbL-0650_RLatLon0.09_PT021H.grib2 2026-05-04 14:52 540K
20260504T12Z_MSC_RDPS_SpecificHumidity_IsbL-0700_RLatLon0.09_PT021H.grib2 2026-05-04 14:52 586K
20260504T12Z_MSC_RDPS_SpecificHumidity_IsbL-0750_RLatLon0.09_PT021H.grib2 2026-05-04 14:52 640K
20260504T12Z_MSC_RDPS_SpecificHumidity_IsbL-0800_RLatLon0.09_PT021H.grib2 2026-05-04 14:52 724K
20260504T12Z_MSC_RDPS_SpecificHumidity_IsbL-0850_RLatLon0.09_PT021H.grib2 2026-05-04 14:52 806K
20260504T12Z_MSC_RDPS_SpecificHumidity_IsbL-0875_RLatLon0.09_PT021H.grib2 2026-05-04 14:52 833K
20260504T12Z_MSC_RDPS_SpecificHumidity_IsbL-0900_RLatLon0.09_PT021H.grib2 2026-05-04 14:52 842K
20260504T12Z_MSC_RDPS_SpecificHumidity_IsbL-0925_RLatLon0.09_PT021H.grib2 2026-05-04 14:52 841K
20260504T12Z_MSC_RDPS_SpecificHumidity_IsbL-0950_RLatLon0.09_PT021H.grib2 2026-05-04 14:52 840K
20260504T12Z_MSC_RDPS_SpecificHumidity_IsbL-0970_RLatLon0.09_PT021H.grib2 2026-05-04 14:52 833K
20260504T12Z_MSC_RDPS_SpecificHumidity_IsbL-0985_RLatLon0.09_PT021H.grib2 2026-05-04 14:52 686K
20260504T12Z_MSC_RDPS_SpecificHumidity_IsbL-1000_RLatLon0.09_PT021H.grib2 2026-05-04 14:52 680K
20260504T12Z_MSC_RDPS_SpecificHumidity_IsbL-1015_RLatLon0.09_PT021H.grib2 2026-05-04 14:52 674K
20260504T12Z_MSC_RDPS_SpecificHumidity_Sfc_RLatLon0.09_PT021H.grib2 2026-05-04 14:52 294K
20260504T12Z_MSC_RDPS_StormRelativeHelicity_EtaL-10000_RLatLon0.09_PT021H.grib2 2026-05-04 14:52 1.1M
20260504T12Z_MSC_RDPS_StormSeverityIndex_EtaL-10000_RLatLon0.09_PT021H.grib2 2026-05-04 14:52 1.2M
20260504T12Z_MSC_RDPS_Thickness_IsbL-0850to0700_RLatLon0.09_PT021H.grib2 2026-05-04 14:52 178K
20260504T12Z_MSC_RDPS_Thickness_IsbL-1000to0500_RLatLon0.09_PT021H.grib2 2026-05-04 14:52 199K
20260504T12Z_MSC_RDPS_Thickness_IsbL-1000to0850_RLatLon0.09_PT021H.grib2 2026-05-04 14:52 262K
20260504T12Z_MSC_RDPS_TotalCloudCover_Sfc_RLatLon0.09_PT021H.grib2 2026-05-04 14:52 669K
20260504T12Z_MSC_RDPS_TotalTotalsIndex_Sfc_RLatLon0.09_PT021H.grib2 2026-05-04 14:52 2.4M
20260504T12Z_MSC_RDPS_UVIndex-ClearSky_Sfc_RLatLon0.09_PT021H.grib2 2026-05-04 14:52 83K
20260504T12Z_MSC_RDPS_UVIndex_Sfc_RLatLon0.09_PT021H.grib2 2026-05-04 14:52 173K
20260504T12Z_MSC_RDPS_UpwardLongwaveRadiationFlux_NTAtm_RLatLon0.09_PT021H.grib2 2026-05-04 14:52 493K
20260504T12Z_MSC_RDPS_UpwardShortwaveRadiationFlux_NTAtm_RLatLon0.09_PT021H.grib2 2026-05-04 14:52 175K
20260504T12Z_MSC_RDPS_VerticalVelocity_IsbL-0250_RLatLon0.09_PT021H.grib2 2026-05-04 14:52 560K
20260504T12Z_MSC_RDPS_VerticalVelocity_IsbL-0500_RLatLon0.09_PT021H.grib2 2026-05-04 14:52 553K
20260504T12Z_MSC_RDPS_VerticalVelocity_IsbL-0700_RLatLon0.09_PT021H.grib2 2026-05-04 14:52 559K
20260504T12Z_MSC_RDPS_VerticalVelocity_IsbL-0850_RLatLon0.09_PT021H.grib2 2026-05-04 14:52 712K
20260504T12Z_MSC_RDPS_VerticalWindShear_EtaL-6500_RLatLon0.09_PT021H.grib2 2026-05-04 14:52 1.2M
20260504T12Z_MSC_RDPS_WindChill_Sfc_RLatLon0.09_PT021H.grib2 2026-05-04 14:52 1.2M
20260504T12Z_MSC_RDPS_WindDir_AGL-10m_RLatLon0.09_PT021H.grib2 2026-05-04 14:52 972K
20260504T12Z_MSC_RDPS_WindDir_AGL-120m_RLatLon0.09_PT021H.grib2 2026-05-04 14:52 602K
20260504T12Z_MSC_RDPS_WindDir_AGL-40m_RLatLon0.09_PT021H.grib2 2026-05-04 14:52 636K
20260504T12Z_MSC_RDPS_WindDir_AGL-80m_RLatLon0.09_PT021H.grib2 2026-05-04 14:52 615K
20260504T12Z_MSC_RDPS_WindDir_IsbL-0001_RLatLon0.09_PT021H.grib2 2026-05-04 14:52 303K
20260504T12Z_MSC_RDPS_WindDir_IsbL-0005_RLatLon0.09_PT021H.grib2 2026-05-04 14:52 393K
20260504T12Z_MSC_RDPS_WindDir_IsbL-0010_RLatLon0.09_PT021H.grib2 2026-05-04 14:52 384K
20260504T12Z_MSC_RDPS_WindDir_IsbL-0020_RLatLon0.09_PT021H.grib2 2026-05-04 14:52 408K
20260504T12Z_MSC_RDPS_WindDir_IsbL-0030_RLatLon0.09_PT021H.grib2 2026-05-04 14:52 413K
20260504T12Z_MSC_RDPS_WindDir_IsbL-0050_RLatLon0.09_PT021H.grib2 2026-05-04 14:52 431K
20260504T12Z_MSC_RDPS_WindDir_IsbL-0100_RLatLon0.09_PT021H.grib2 2026-05-04 14:52 422K
20260504T12Z_MSC_RDPS_WindDir_IsbL-0150_RLatLon0.09_PT021H.grib2 2026-05-04 14:52 418K
20260504T12Z_MSC_RDPS_WindDir_IsbL-0175_RLatLon0.09_PT021H.grib2 2026-05-04 14:52 439K
20260504T12Z_MSC_RDPS_WindDir_IsbL-0200_RLatLon0.09_PT021H.grib2 2026-05-04 14:52 452K
20260504T12Z_MSC_RDPS_WindDir_IsbL-0225_RLatLon0.09_PT021H.grib2 2026-05-04 14:52 458K
20260504T12Z_MSC_RDPS_WindDir_IsbL-0250_RLatLon0.09_PT021H.grib2 2026-05-04 14:52 460K
20260504T12Z_MSC_RDPS_WindDir_IsbL-0275_RLatLon0.09_PT021H.grib2 2026-05-04 14:52 478K
20260504T12Z_MSC_RDPS_WindDir_IsbL-0300_RLatLon0.09_PT021H.grib2 2026-05-04 14:52 477K
20260504T12Z_MSC_RDPS_WindDir_IsbL-0350_RLatLon0.09_PT021H.grib2 2026-05-04 14:52 495K
20260504T12Z_MSC_RDPS_WindDir_IsbL-0400_RLatLon0.09_PT021H.grib2 2026-05-04 14:52 511K
20260504T12Z_MSC_RDPS_WindDir_IsbL-0450_RLatLon0.09_PT021H.grib2 2026-05-04 14:52 528K
20260504T12Z_MSC_RDPS_WindDir_IsbL-0500_RLatLon0.09_PT021H.grib2 2026-05-04 14:52 535K
20260504T12Z_MSC_RDPS_WindDir_IsbL-0550_RLatLon0.09_PT021H.grib2 2026-05-04 14:52 549K
20260504T12Z_MSC_RDPS_WindDir_IsbL-0600_RLatLon0.09_PT021H.grib2 2026-05-04 14:52 577K
20260504T12Z_MSC_RDPS_WindDir_IsbL-0650_RLatLon0.09_PT021H.grib2 2026-05-04 14:52 617K
20260504T12Z_MSC_RDPS_WindDir_IsbL-0700_RLatLon0.09_PT021H.grib2 2026-05-04 14:52 660K
20260504T12Z_MSC_RDPS_WindDir_IsbL-0750_RLatLon0.09_PT021H.grib2 2026-05-04 14:52 707K
20260504T12Z_MSC_RDPS_WindDir_IsbL-0800_RLatLon0.09_PT021H.grib2 2026-05-04 14:52 780K
20260504T12Z_MSC_RDPS_WindDir_IsbL-0850_RLatLon0.09_PT021H.grib2 2026-05-04 14:52 868K
20260504T12Z_MSC_RDPS_WindDir_IsbL-0875_RLatLon0.09_PT021H.grib2 2026-05-04 14:52 897K
20260504T12Z_MSC_RDPS_WindDir_IsbL-0900_RLatLon0.09_PT021H.grib2 2026-05-04 14:52 911K
20260504T12Z_MSC_RDPS_WindDir_IsbL-0925_RLatLon0.09_PT021H.grib2 2026-05-04 14:52 914K
20260504T12Z_MSC_RDPS_WindDir_IsbL-0950_RLatLon0.09_PT021H.grib2 2026-05-04 14:52 911K
20260504T12Z_MSC_RDPS_WindDir_IsbL-0970_RLatLon0.09_PT021H.grib2 2026-05-04 14:52 918K
20260504T12Z_MSC_RDPS_WindDir_IsbL-0985_RLatLon0.09_PT021H.grib2 2026-05-04 14:52 927K
20260504T12Z_MSC_RDPS_WindDir_IsbL-1000_RLatLon0.09_PT021H.grib2 2026-05-04 14:52 943K
20260504T12Z_MSC_RDPS_WindDir_IsbL-1015_RLatLon0.09_PT021H.grib2 2026-05-04 14:52 961K
20260504T12Z_MSC_RDPS_WindGust-Max_AGL-10m_RLatLon0.09_PT021H.grib2 2026-05-04 14:52 1.0M
20260504T12Z_MSC_RDPS_WindGust-Min_AGL-10m_RLatLon0.09_PT021H.grib2 2026-05-04 14:52 1.0M
20260504T12Z_MSC_RDPS_WindGust_AGL-10m_RLatLon0.09_PT021H.grib2 2026-05-04 14:52 1.0M
20260504T12Z_MSC_RDPS_WindSpeed_AGL-10m_RLatLon0.09_PT021H.grib2 2026-05-04 14:52 854K
20260504T12Z_MSC_RDPS_WindSpeed_AGL-120m_RLatLon0.09_PT021H.grib2 2026-05-04 14:52 548K
20260504T12Z_MSC_RDPS_WindSpeed_AGL-40m_RLatLon0.09_PT021H.grib2 2026-05-04 14:52 552K
20260504T12Z_MSC_RDPS_WindSpeed_AGL-80m_RLatLon0.09_PT021H.grib2 2026-05-04 14:52 550K
20260504T12Z_MSC_RDPS_WindSpeed_IsbL-0001_RLatLon0.09_PT021H.grib2 2026-05-04 14:52 333K
20260504T12Z_MSC_RDPS_WindSpeed_IsbL-0005_RLatLon0.09_PT021H.grib2 2026-05-04 14:52 389K
20260504T12Z_MSC_RDPS_WindSpeed_IsbL-0010_RLatLon0.09_PT021H.grib2 2026-05-04 14:52 365K
20260504T12Z_MSC_RDPS_WindSpeed_IsbL-0020_RLatLon0.09_PT021H.grib2 2026-05-04 14:52 419K
20260504T12Z_MSC_RDPS_WindSpeed_IsbL-0030_RLatLon0.09_PT021H.grib2 2026-05-04 14:52 321K
20260504T12Z_MSC_RDPS_WindSpeed_IsbL-0050_RLatLon0.09_PT021H.grib2 2026-05-04 14:52 356K
20260504T12Z_MSC_RDPS_WindSpeed_IsbL-0100_RLatLon0.09_PT021H.grib2 2026-05-04 14:52 482K
20260504T12Z_MSC_RDPS_WindSpeed_IsbL-0150_RLatLon0.09_PT021H.grib2 2026-05-04 14:52 406K
20260504T12Z_MSC_RDPS_WindSpeed_IsbL-0175_RLatLon0.09_PT021H.grib2 2026-05-04 14:52 429K
20260504T12Z_MSC_RDPS_WindSpeed_IsbL-0200_RLatLon0.09_PT021H.grib2 2026-05-04 14:52 442K
20260504T12Z_MSC_RDPS_WindSpeed_IsbL-0225_RLatLon0.09_PT021H.grib2 2026-05-04 14:52 448K
20260504T12Z_MSC_RDPS_WindSpeed_IsbL-0250_RLatLon0.09_PT021H.grib2 2026-05-04 14:52 451K
20260504T12Z_MSC_RDPS_WindSpeed_IsbL-0275_RLatLon0.09_PT021H.grib2 2026-05-04 14:52 466K
20260504T12Z_MSC_RDPS_WindSpeed_IsbL-0300_RLatLon0.09_PT021H.grib2 2026-05-04 14:52 464K
20260504T12Z_MSC_RDPS_WindSpeed_IsbL-0350_RLatLon0.09_PT021H.grib2 2026-05-04 14:52 476K
20260504T12Z_MSC_RDPS_WindSpeed_IsbL-0400_RLatLon0.09_PT021H.grib2 2026-05-04 14:52 479K
20260504T12Z_MSC_RDPS_WindSpeed_IsbL-0450_RLatLon0.09_PT021H.grib2 2026-05-04 14:52 463K
20260504T12Z_MSC_RDPS_WindSpeed_IsbL-0500_RLatLon0.09_PT021H.grib2 2026-05-04 14:52 466K
20260504T12Z_MSC_RDPS_WindSpeed_IsbL-0550_RLatLon0.09_PT021H.grib2 2026-05-04 14:52 465K
20260504T12Z_MSC_RDPS_WindSpeed_IsbL-0600_RLatLon0.09_PT021H.grib2 2026-05-04 14:52 592K
20260504T12Z_MSC_RDPS_WindSpeed_IsbL-0650_RLatLon0.09_PT021H.grib2 2026-05-04 14:52 611K
20260504T12Z_MSC_RDPS_WindSpeed_IsbL-0700_RLatLon0.09_PT021H.grib2 2026-05-04 14:52 634K
20260504T12Z_MSC_RDPS_WindSpeed_IsbL-0750_RLatLon0.09_PT021H.grib2 2026-05-04 14:52 665K
20260504T12Z_MSC_RDPS_WindSpeed_IsbL-0800_RLatLon0.09_PT021H.grib2 2026-05-04 14:52 763K
20260504T12Z_MSC_RDPS_WindSpeed_IsbL-0850_RLatLon0.09_PT021H.grib2 2026-05-04 14:52 834K
20260504T12Z_MSC_RDPS_WindSpeed_IsbL-0875_RLatLon0.09_PT021H.grib2 2026-05-04 14:52 859K
20260504T12Z_MSC_RDPS_WindSpeed_IsbL-0900_RLatLon0.09_PT021H.grib2 2026-05-04 14:52 870K
20260504T12Z_MSC_RDPS_WindSpeed_IsbL-0925_RLatLon0.09_PT021H.grib2 2026-05-04 14:52 880K
20260504T12Z_MSC_RDPS_WindSpeed_IsbL-0950_RLatLon0.09_PT021H.grib2 2026-05-04 14:52 880K
20260504T12Z_MSC_RDPS_WindSpeed_IsbL-0970_RLatLon0.09_PT021H.grib2 2026-05-04 14:52 877K
20260504T12Z_MSC_RDPS_WindSpeed_IsbL-0985_RLatLon0.09_PT021H.grib2 2026-05-04 14:52 866K
20260504T12Z_MSC_RDPS_WindSpeed_IsbL-1000_RLatLon0.09_PT021H.grib2 2026-05-04 14:52 861K
20260504T12Z_MSC_RDPS_WindSpeed_IsbL-1015_RLatLon0.09_PT021H.grib2 2026-05-04 14:52 853K
20260504T12Z_MSC_RDPS_WindU_AGL-10m_RLatLon0.09_PT021H.grib2 2026-05-04 14:52 436K
20260504T12Z_MSC_RDPS_WindU_AGL-120m_RLatLon0.09_PT021H.grib2 2026-05-04 14:52 423K
20260504T12Z_MSC_RDPS_WindU_AGL-40m_RLatLon0.09_PT021H.grib2 2026-05-04 14:52 544K
20260504T12Z_MSC_RDPS_WindU_AGL-80m_RLatLon0.09_PT021H.grib2 2026-05-04 14:52 543K
20260504T12Z_MSC_RDPS_WindU_IsbL-0001_RLatLon0.09_PT021H.grib2 2026-05-04 14:52 293K
20260504T12Z_MSC_RDPS_WindU_IsbL-0005_RLatLon0.09_PT021H.grib2 2026-05-04 14:52 284K
20260504T12Z_MSC_RDPS_WindU_IsbL-0010_RLatLon0.09_PT021H.grib2 2026-05-04 14:52 296K
20260504T12Z_MSC_RDPS_WindU_IsbL-0020_RLatLon0.09_PT021H.grib2 2026-05-04 14:52 314K
20260504T12Z_MSC_RDPS_WindU_IsbL-0030_RLatLon0.09_PT021H.grib2 2026-05-04 14:52 353K
20260504T12Z_MSC_RDPS_WindU_IsbL-0050_RLatLon0.09_PT021H.grib2 2026-05-04 14:52 384K
20260504T12Z_MSC_RDPS_WindU_IsbL-0100_RLatLon0.09_PT021H.grib2 2026-05-04 14:52 340K
20260504T12Z_MSC_RDPS_WindU_IsbL-0150_RLatLon0.09_PT021H.grib2 2026-05-04 14:52 400K
20260504T12Z_MSC_RDPS_WindU_IsbL-0175_RLatLon0.09_PT021H.grib2 2026-05-04 14:52 328K
20260504T12Z_MSC_RDPS_WindU_IsbL-0200_RLatLon0.09_PT021H.grib2 2026-05-04 14:52 338K
20260504T12Z_MSC_RDPS_WindU_IsbL-0225_RLatLon0.09_PT021H.grib2 2026-05-04 14:52 342K
20260504T12Z_MSC_RDPS_WindU_IsbL-0250_RLatLon0.09_PT021H.grib2 2026-05-04 14:52 342K
20260504T12Z_MSC_RDPS_WindU_IsbL-0275_RLatLon0.09_PT021H.grib2 2026-05-04 14:52 355K
20260504T12Z_MSC_RDPS_WindU_IsbL-0300_RLatLon0.09_PT021H.grib2 2026-05-04 14:52 352K
20260504T12Z_MSC_RDPS_WindU_IsbL-0350_RLatLon0.09_PT021H.grib2 2026-05-04 14:52 361K
20260504T12Z_MSC_RDPS_WindU_IsbL-0400_RLatLon0.09_PT021H.grib2 2026-05-04 14:52 363K
20260504T12Z_MSC_RDPS_WindU_IsbL-0450_RLatLon0.09_PT021H.grib2 2026-05-04 14:52 469K
20260504T12Z_MSC_RDPS_WindU_IsbL-0500_RLatLon0.09_PT021H.grib2 2026-05-04 14:52 472K
20260504T12Z_MSC_RDPS_WindU_IsbL-0550_RLatLon0.09_PT021H.grib2 2026-05-04 14:52 472K
20260504T12Z_MSC_RDPS_WindU_IsbL-0600_RLatLon0.09_PT021H.grib2 2026-05-04 14:52 481K
20260504T12Z_MSC_RDPS_WindU_IsbL-0650_RLatLon0.09_PT021H.grib2 2026-05-04 14:52 498K
20260504T12Z_MSC_RDPS_WindU_IsbL-0700_RLatLon0.09_PT021H.grib2 2026-05-04 14:52 517K
20260504T12Z_MSC_RDPS_WindU_IsbL-0750_RLatLon0.09_PT021H.grib2 2026-05-04 14:52 544K
20260504T12Z_MSC_RDPS_WindU_IsbL-0800_RLatLon0.09_PT021H.grib2 2026-05-04 14:52 588K
20260504T12Z_MSC_RDPS_WindU_IsbL-0850_RLatLon0.09_PT021H.grib2 2026-05-04 14:52 647K
20260504T12Z_MSC_RDPS_WindU_IsbL-0875_RLatLon0.09_PT021H.grib2 2026-05-04 14:52 666K
20260504T12Z_MSC_RDPS_WindU_IsbL-0900_RLatLon0.09_PT021H.grib2 2026-05-04 14:52 667K
20260504T12Z_MSC_RDPS_WindU_IsbL-0925_RLatLon0.09_PT021H.grib2 2026-05-04 14:52 672K
20260504T12Z_MSC_RDPS_WindU_IsbL-0950_RLatLon0.09_PT021H.grib2 2026-05-04 14:52 668K
20260504T12Z_MSC_RDPS_WindU_IsbL-0970_RLatLon0.09_PT021H.grib2 2026-05-04 14:52 662K
20260504T12Z_MSC_RDPS_WindU_IsbL-0985_RLatLon0.09_PT021H.grib2 2026-05-04 14:52 796K
20260504T12Z_MSC_RDPS_WindU_IsbL-1000_RLatLon0.09_PT021H.grib2 2026-05-04 14:52 793K
20260504T12Z_MSC_RDPS_WindU_IsbL-1015_RLatLon0.09_PT021H.grib2 2026-05-04 14:52 788K
20260504T12Z_MSC_RDPS_WindV_AGL-10m_RLatLon0.09_PT021H.grib2 2026-05-04 14:52 439K
20260504T12Z_MSC_RDPS_WindV_AGL-120m_RLatLon0.09_PT021H.grib2 2026-05-04 14:52 425K
20260504T12Z_MSC_RDPS_WindV_AGL-40m_RLatLon0.09_PT021H.grib2 2026-05-04 14:52 546K
20260504T12Z_MSC_RDPS_WindV_AGL-80m_RLatLon0.09_PT021H.grib2 2026-05-04 14:52 544K
20260504T12Z_MSC_RDPS_WindV_IsbL-0001_RLatLon0.09_PT021H.grib2 2026-05-04 14:52 248K
20260504T12Z_MSC_RDPS_WindV_IsbL-0005_RLatLon0.09_PT021H.grib2 2026-05-04 14:52 288K
20260504T12Z_MSC_RDPS_WindV_IsbL-0010_RLatLon0.09_PT021H.grib2 2026-05-04 14:52 298K
20260504T12Z_MSC_RDPS_WindV_IsbL-0020_RLatLon0.09_PT021H.grib2 2026-05-04 14:52 315K
20260504T12Z_MSC_RDPS_WindV_IsbL-0030_RLatLon0.09_PT021H.grib2 2026-05-04 14:52 353K
20260504T12Z_MSC_RDPS_WindV_IsbL-0050_RLatLon0.09_PT021H.grib2 2026-05-04 14:52 349K
20260504T12Z_MSC_RDPS_WindV_IsbL-0100_RLatLon0.09_PT021H.grib2 2026-05-04 14:52 338K
20260504T12Z_MSC_RDPS_WindV_IsbL-0150_RLatLon0.09_PT021H.grib2 2026-05-04 14:52 397K
20260504T12Z_MSC_RDPS_WindV_IsbL-0175_RLatLon0.09_PT021H.grib2 2026-05-04 14:52 325K
20260504T12Z_MSC_RDPS_WindV_IsbL-0200_RLatLon0.09_PT021H.grib2 2026-05-04 14:52 337K
20260504T12Z_MSC_RDPS_WindV_IsbL-0225_RLatLon0.09_PT021H.grib2 2026-05-04 14:52 366K
20260504T12Z_MSC_RDPS_WindV_IsbL-0250_RLatLon0.09_PT021H.grib2 2026-05-04 14:52 368K
20260504T12Z_MSC_RDPS_WindV_IsbL-0275_RLatLon0.09_PT021H.grib2 2026-05-04 14:52 380K
20260504T12Z_MSC_RDPS_WindV_IsbL-0300_RLatLon0.09_PT021H.grib2 2026-05-04 14:52 377K
20260504T12Z_MSC_RDPS_WindV_IsbL-0350_RLatLon0.09_PT021H.grib2 2026-05-04 14:52 359K
20260504T12Z_MSC_RDPS_WindV_IsbL-0400_RLatLon0.09_PT021H.grib2 2026-05-04 14:52 363K
20260504T12Z_MSC_RDPS_WindV_IsbL-0450_RLatLon0.09_PT021H.grib2 2026-05-04 14:52 365K
20260504T12Z_MSC_RDPS_WindV_IsbL-0500_RLatLon0.09_PT021H.grib2 2026-05-04 14:52 469K
20260504T12Z_MSC_RDPS_WindV_IsbL-0550_RLatLon0.09_PT021H.grib2 2026-05-04 14:52 470K
20260504T12Z_MSC_RDPS_WindV_IsbL-0600_RLatLon0.09_PT021H.grib2 2026-05-04 14:52 478K
20260504T12Z_MSC_RDPS_WindV_IsbL-0650_RLatLon0.09_PT021H.grib2 2026-05-04 14:52 478K
20260504T12Z_MSC_RDPS_WindV_IsbL-0700_RLatLon0.09_PT021H.grib2 2026-05-04 14:52 499K
20260504T12Z_MSC_RDPS_WindV_IsbL-0750_RLatLon0.09_PT021H.grib2 2026-05-04 14:52 527K
20260504T12Z_MSC_RDPS_WindV_IsbL-0800_RLatLon0.09_PT021H.grib2 2026-05-04 14:52 573K
20260504T12Z_MSC_RDPS_WindV_IsbL-0850_RLatLon0.09_PT021H.grib2 2026-05-04 14:52 636K
20260504T12Z_MSC_RDPS_WindV_IsbL-0875_RLatLon0.09_PT021H.grib2 2026-05-04 14:52 657K
20260504T12Z_MSC_RDPS_WindV_IsbL-0900_RLatLon0.09_PT021H.grib2 2026-05-04 14:52 666K
20260504T12Z_MSC_RDPS_WindV_IsbL-0925_RLatLon0.09_PT021H.grib2 2026-05-04 14:52 673K
20260504T12Z_MSC_RDPS_WindV_IsbL-0950_RLatLon0.09_PT021H.grib2 2026-05-04 14:52 668K
20260504T12Z_MSC_RDPS_WindV_IsbL-0970_RLatLon0.09_PT021H.grib2 2026-05-04 14:52 666K
20260504T12Z_MSC_RDPS_WindV_IsbL-0985_RLatLon0.09_PT021H.grib2 2026-05-04 14:52 801K
20260504T12Z_MSC_RDPS_WindV_IsbL-1000_RLatLon0.09_PT021H.grib2 2026-05-04 14:52 796K
20260504T12Z_MSC_RDPS_WindV_IsbL-1015_RLatLon0.09_PT021H.grib2 2026-05-04 14:52 791K